STARLINK-34916

Last updated on Tue Sep 16 2025 00:02:07 GMT+0000 (Coordinated Universal Time)

1 65427U 25192Z 25258.58341435 -.01487001 00000+0 -15680-1 0 9991 2 65427 53.1594 338.0536 0001111 71.8102 188.5548 15.66418591 3620
UTC large
Height (km)
Speed (km/s)
/
Latitude / Longitude
Inclination (degrees)
Orbital Period (minutes)
Azimuth
Elevation
Range (km)
Doppler Factor

Next 0 passes for location: London (51.5072 / 0.1276)

Sorry there are no passes over London.